Monroe, NC

3:52 AM EDT on March 27, 2017 (GMT -0400)
Monroe

Weather History for KEQY - February, 2014

Change the Weather History Date:

Monday, February 17, 2014

  Actual Average (KCLT) Record (KCLT)
Temperature  
Mean Temperature 41 °F -  
Max Temperature 48 °F 54 °F 79 °F (1927)
Min Temperature 34 °F 34 °F 7 °F (1958)
Degree Days  
Heating Degree Days 24    
Moisture  
Dew Point 27 °F    
Average Humidity 57    
Maximum Humidity 73    
Minimum Humidity 42    
Precipitation  
Precipitation 0.00 in - - ()
Sea Level Pressure  
Sea Level Pressure 30.27 in    
Wind  
Wind Speed 4 mph (ENE)    
Max Wind Speed 12 mph    
Max Gust Speed -    
Visibility 10 miles    
Events      
Averages and records for this station are not official NWS values.
T = Trace of Precipitation, MM = Missing Value Source: NWS Daily Summary

Daily Weather History Graph

Daily Weather History Graph

Search for Another Location

Airport or City:

Trip Planner

Search our weather history database for the weather conditions in past years. The results will help you decide how hot, cold, wet, or windy it might be!

Date:

Astronomy

Feb. 17, 2014 Rise Set
Actual Time 7:06 AM EST 6:07 PM EST
Civil Twilight 6:40 AM EST 6:32 PM EST
Nautical Twilight 6:10 AM EST 7:02 PM EST
Astronomical Twilight 5:41 AM EST 7:31 PM EST
Moon 8:51 PM EST (2/17) 8:13 AM EST (2/17)
Length of Visible Light 11h 52m
Length of Day
11h 00m
Waning Gibbous, 93% of the Moon is Illuminated
Feb 17
Waning Gibbous
Feb 22
Last Quarter
Mar 1
New
Mar 8
First Quarter
Mar 16
Full

Hourly Weather History & Observations

Time (EST) Temp. Windchill Dew Point Humidity Pressure Visibility Wind Dir Wind Speed Gust Speed Precip Events Conditions
12:53 AM 41.0 °F 39.0 °F 27.0 °F 57% 30.19 in 10.0 mi NE 3.5 mph - N/A   Clear
1:53 AM 37.9 °F - 28.0 °F 68% 30.22 in 10.0 mi Calm Calm - N/A   Clear
2:53 AM 37.9 °F 34.4 °F 27.0 °F 65% 30.22 in 10.0 mi NE 4.6 mph - N/A   Clear
3:53 AM 37.0 °F 31.0 °F 28.0 °F 70% 30.25 in 10.0 mi NE 8.1 mph - N/A   Clear
4:53 AM 35.1 °F 30.1 °F 27.0 °F 72% 30.28 in 10.0 mi NE 5.8 mph - N/A   Clear
5:53 AM 36.0 °F 33.3 °F 26.1 °F 67% 30.30 in 10.0 mi ENE 3.5 mph - N/A   Clear
6:53 AM 34.0 °F 31.0 °F 26.1 °F 73% 30.32 in 10.0 mi ENE 3.5 mph - N/A   Clear
7:53 AM 35.1 °F 29.3 °F 24.1 °F 64% 30.35 in 10.0 mi NE 6.9 mph - N/A   Clear
8:53 AM 37.0 °F 29.8 °F 23.0 °F 57% 30.38 in 10.0 mi ENE 10.4 mph - N/A   Clear
9:53 AM 39.0 °F 31.8 °F 23.0 °F 53% 30.38 in 10.0 mi ENE 11.5 mph - N/A   Clear
10:53 AM 42.1 °F 40.2 °F 24.1 °F 49% 30.38 in 10.0 mi Variable 3.5 mph - N/A   Clear
11:53 AM 43.0 °F 39.5 °F 24.1 °F 47% 30.37 in 10.0 mi Variable 5.8 mph - N/A   Clear
12:53 PM 45.0 °F 43.5 °F 25.0 °F 46% 30.34 in 10.0 mi Variable 3.5 mph - N/A   Clear
1:53 PM 46.0 °F 43.9 °F 25.0 °F 44% 30.31 in 10.0 mi Variable 4.6 mph - N/A   Clear
2:53 PM 48.0 °F - 26.1 °F 42% 30.28 in 10.0 mi SE 5.8 mph - N/A   Clear
3:53 PM 48.9 °F - 27.0 °F 43% 30.28 in 10.0 mi Variable 4.6 mph - N/A   Clear
4:53 PM 48.9 °F - 28.0 °F 44% 30.26 in 10.0 mi ESE 3.5 mph - N/A   Clear
5:53 PM 46.0 °F 43.9 °F 28.0 °F 50% 30.25 in 10.0 mi Variable 4.6 mph - N/A   Clear
6:53 PM 44.1 °F 41.5 °F 28.0 °F 53% 30.27 in 10.0 mi East 4.6 mph - N/A   Clear
7:53 PM 42.1 °F 40.2 °F 28.0 °F 58% 30.30 in 10.0 mi East 3.5 mph - N/A   Clear
8:53 PM 43.0 °F 40.3 °F 28.0 °F 56% 30.24 in 10.0 mi ESE 4.6 mph - N/A   Overcast
9:53 PM 42.1 °F - 28.0 °F 58% 30.23 in 10.0 mi Calm Calm - N/A   Partly Cloudy
10:53 PM 41.0 °F - 30.0 °F 65% 30.19 in 10.0 mi Calm Calm - N/A   Mostly Cloudy
11:33 PM 42.8 °F - 30.2 °F 61% 30.15 in 10.0 mi Calm Calm - N/A   Overcast
11:49 PM 42.8 °F - 30.2 °F 61% 30.15 in 10.0 mi Calm Calm - N/A   Overcast
11:53 PM 42.1 °F - 30.0 °F 62% 30.20 in 10.0 mi Calm Calm - N/A   Overcast